Location: Palmerston North
(40.3500°S, 175.6170°E)
Time: 05:57:05
(UTC+12:00)

Cosmos 1939 Rocket - Pass Details

Date: 24 January 2019
Orbit: 534 x 584 km, 97.4° (Epoch: 21 April)

Event Time Altitude Azimuth Distance (km) Brightness Sun altitude
Rises 21:32:26 0° 169° (S) 2,844 6.8 -8.9°
Reaches altitude 10° 21:34:37 10° 170° (S) 1,938 5.9 -9.2°
Maximum altitude 21:38:50 84° 258° (WSW) 602 3.0 -9.9°
Drops below altitude 10° 21:42:59 10° 344° (NNW) 1,908 5.4 -10.5°
Sets 21:45:07 0° 345° (NNW) 2,796 6.2 -10.8°
